[[{"header":{"parameterUnit":"m.s-1","parameterCategory":1,"la1":30.2992,"la2":30.254,"lo1":-89.0895,"lo2":-89.0443,"dy":0.0025,"dx":0.0025,"nx":19,"ny":19,"refTime":"2026-04-03T09:00:00:Z","depth":0,"parameterNumber":2,"parameterNumberName":"U-component_of_WINDS"},"data":[0,0,0,-6.09,-6.0902,-6.0975,-6.0975,-6.1097,-6.1098,0,0,0,0,0,0,0,0,0,0,0,-6.0897,-6.0899,-6.09,-6.0902,-6.0975,-6.0975,-6.1097,-6.1098,0,0,0,0,0,0,0,0,0,0,0,-6.0897,-6.0898,-6.09,-6.0903,-6.0975,-6.0975,-6.1096,-6.1031,0,0,0,0,0,0,0,0,0,0,-6.0955,-6.0971,-6.0898,-6.09,-6.0903,-6.0975,-6.0975,-6.1027,-6.1035,-6.1077,0,-6.112,0,-6.1112,-6.1108,-6.1109,0,0,0,-6.0888,-6.0965,-6.0968,-6.0901,-6.0904,-6.0975,-6.0938,-6.1031,-6.104,-6.1087,-6.1122,-6.1125,-6.1114,-6.1109,-6.111,-6.1404,-6.1406,0,0,-6.0884,-6.092,-6.0962,-6.0974,-6.0967,-6.0936,-6.0941,-6.1036,-6.1075,-6.1122,-6.1128,-6.1116,-6.111,-6.1111,-6.1402,-6.1405,0,0,0,-6.0882,-6.0918,-6.0918,-6.097,-6.0981,-6.0938,-6.0944,-6.1071,-6.1068,-6.1129,-6.1117,-6.1111,-6.1113,-6.14,-6.1403,-6.154,0,0,0,-6.0879,-6.0917,-6.0917,-6.094,-6.098,-6.1027,-6.0977,-6.1061,-6.1071,-6.1116,-6.1111,-6.1114,-6.1397,-6.1401,-6.1531,-6.1597,0,0,0,-6.0886,-6.0917,-6.0935,-6.0941,-6.0974,-6.1025,-6.1027,-6.1062,-6.1065,-6.1109,-6.1115,-6.1396,-6.1401,-6.1523,-6.1584,-6.1685,0,0,0,-6.0903,-6.1054,-6.0937,-6.1101,-6.0974,-6.1111,-6.1026,-6.1125,-6.118,-6.1112,-6.1398,-6.1403,-6.1521,-6.1576,-6.1677,-6.1775,-6.1819,0,0,-6.1113,-6.108,-6.1174,-6.1072,-6.1238,-6.1096,-6.1282,-6.1297,-6.1267,-6.136,-6.1366,-6.1534,-6.1584,-6.1683,-6.2061,-6.2097,0,0,0,-6.1252,-6.132,-6.1356,-6.1411,-6.1428,-6.1447,-6.143,-6.1435,-6.1513,-6.1323,-6.1597,-6.1625,-6.1682,-6.1727,-6.1758,-6.1804,-6.1426,-6.1425,-6.1425,-6.1598,-6.1555,-6.1706,-6.1673,-6.1727,-6.1709,-6.1749,-6.1753,-6.1691,-6.1757,-6.1783,-6.2018,-6.2072,-6.2095,-6.2144,-6.1833,-6.1834,-6.1834,-6.1834,-6.19,-6.1988,-6.1906,-6.2023,-6.1977,-6.2074,-6.2064,-6.2017,-6.21,-6.1994,-6.2042,-6.1928,-6.2136,-6.2176,-6.1844,-6.1843,-6.1841,-6.184,-6.184,-6.212,-6.2154,-6.2161,-6.2237,-6.2301,-6.2261,-6.2346,-6.2299,-6.2256,-6.2304,-6.2326,-6.2324,-6.2314,-6.2318,-6.2319,-6.232,-6.2321,-6.2321,-6.2322,-6.2344,-6.2347,-6.2425,-6.2458,-6.2488,-6.2522,-6.2508,-6.2536,-6.2554,-6.2514,-6.2513,-6.2445,-6.2165,-6.2095,-6.2334,-6.2332,-6.233,-6.2329,-6.2328,-6.2662,-6.2583,-6.2704,-6.2735,-6.277,-6.2836,-6.2778,-6.2839,-6.2855,-6.2898,-6.2821,-6.2623,-6.2585,-6.256,-6.2501,-6.2831,-6.2831,-6.2831,-6.2831,-6.2846,-6.2824,-6.2937,-6.2989,-6.3035,-6.2995,-6.3132,-6.3124,-6.3102,-6.3109,-6.3055,-6.2974,-6.2952,-6.2927,-6.2894,-6.2838,-6.3247,-6.3247,-6.3248,-6.3038,-6.3019,-6.3144,-6.3124,-6.315,-6.3172,-6.3299,-6.336,-6.332,-6.3263,-6.3113,-6.3096,-6.2965,-6.2924,-6.2861,-6.2812,-6.2709,0,0]},{"header":{"parameterUnit":"m.s-1","parameterCategory":1,"la1":30.2992,"la2":30.254,"lo1":-89.0895,"lo2":-89.0443,"dy":0.0025,"dx":0.0025,"nx":19,"ny":19,"refTime":"2026-04-03T09:00:00:Z","depth":0,"parameterNumber":3,"parameterNumberName":"V-component_of_WINDS"},"data":[0,0,0,2.3559,2.3559,2.3567,2.3567,2.3546,2.3545,0,0,0,0,0,0,0,0,0,0,0,2.354,2.354,2.3559,2.3559,2.3567,2.3567,2.3546,2.3545,0,0,0,0,0,0,0,0,0,0,0,2.354,2.354,2.3539,2.3559,2.3567,2.3567,2.3546,2.355,0,0,0,0,0,0,0,0,0,0,2.3547,2.3515,2.354,2.3539,2.3559,2.3567,2.3567,2.3551,2.355,2.3529,0,2.3509,0,2.3527,2.3542,2.3542,0,0,0,2.357,2.3516,2.3533,2.3539,2.3559,2.3567,2.3566,2.3551,2.3549,2.3528,2.3509,2.3509,2.3527,2.3542,2.3541,2.3395,2.3393,0,0,2.3569,2.3532,2.3534,2.3532,2.3532,2.3566,2.3566,2.355,2.3526,2.3509,2.3509,2.3526,2.3541,2.3541,2.3396,2.3394,0,0,0,2.3561,2.3531,2.355,2.3532,2.3536,2.3566,2.3566,2.3527,2.3537,2.3509,2.3526,2.3541,2.354,2.3397,2.3395,2.33,0,0,0,2.3561,2.3526,2.3549,2.3526,2.3536,2.3532,2.3543,2.3538,2.3537,2.3526,2.3541,2.354,2.3399,2.3396,2.3306,2.326,0,0,0,2.3545,2.3524,2.352,2.3524,2.3526,2.3533,2.3542,2.3539,2.3547,2.3542,2.354,2.34,2.3397,2.3311,2.3268,2.3211,0,0,0,2.3516,2.3433,2.3518,2.3432,2.3526,2.3476,2.3543,2.3506,2.3491,2.3541,2.3398,2.3396,2.3312,2.3274,2.3216,2.3155,2.3126,0,0,2.339,2.3417,2.3369,2.3446,2.3371,2.3478,2.3389,2.3408,2.344,2.3407,2.3404,2.3304,2.3269,2.3212,2.2983,2.296,0,0,0,2.3316,2.3281,2.327,2.3256,2.3272,2.3281,2.3319,2.3327,2.3302,2.3417,2.327,2.325,2.3218,2.319,2.3171,2.3145,2.3382,2.3382,2.3382,2.3081,2.3131,2.3056,2.3106,2.3091,2.3134,2.3125,2.3142,2.3193,2.3158,2.3147,2.3003,2.2969,2.2955,2.2927,2.3121,2.312,2.312,2.312,2.29,2.2858,2.2933,2.2887,2.2939,2.2899,2.2936,2.2974,2.2944,2.3014,2.2988,2.3059,2.2928,2.2907,2.3113,2.3114,2.3115,2.3116,2.3116,2.275,2.2739,2.2753,2.2739,2.2723,2.2777,2.2745,2.2793,2.2837,2.2812,2.2806,2.2808,2.2814,2.2807,2.2806,2.2806,2.2805,2.2805,2.2804,2.2588,2.2608,2.2577,2.2589,2.2588,2.2591,2.2635,2.2633,2.2644,2.2681,2.2681,2.2734,2.2908,2.2949,2.2797,2.2798,2.2799,2.28,2.28,2.2383,2.2438,2.239,2.2389,2.2408,2.2388,2.2453,2.2446,2.2452,2.2434,2.2496,2.2616,2.2645,2.2661,2.2695,2.2486,2.2486,2.2486,2.2486,2.2255,2.2277,2.224,2.2235,2.2235,2.2289,2.2231,2.2264,2.2306,2.2313,2.2351,2.2401,2.2416,2.2436,2.2457,2.2489,2.2233,2.2233,2.2232,2.2132,2.2156,2.2098,2.2144,2.2164,2.2179,2.2126,2.2115,2.2174,2.2223,2.2319,2.2329,2.2412,2.2436,2.2484,2.2515,2.2576,0,0]}]]